AUA5OU LIML-LOWW

Flight info

Callsign AUA5OU
Flight time 1h 3m
Altitude 35000
Route NESTI DCT ARALD DCT ABTAN ABTAN2W
Aircraft A20N/M-SDE2E3FGHIJ1RWXY/LB2

Departure

Time 2026-04-22 14:06
Airport Milano Linate Airport (LIML)

Arrival

Time 2026-04-22 15:10
Airport Vienna International Airport (LOWW)
Time Latitude Longitude Altitude Speed Heading
2026-04-22 13:33 45.45692 9.27881 360 ft 0 kts 91°
2026-04-22 13:52 45.45692 9.27864 365 ft 4 kts 97°
2026-04-22 13:52 45.45700 9.27829 361 ft 4 kts 137°
2026-04-22 13:52 45.45716 9.27818 360 ft 1 kts 180°
2026-04-22 13:52 45.45720 9.27818 360 ft 0 kts 180°
2026-04-22 13:59 45.45714 9.27818 359 ft 3 kts 180°
2026-04-22 13:59 45.45681 9.27817 360 ft 7 kts 180°
2026-04-22 13:59 45.45612 9.27816 362 ft 13 kts 180°
2026-04-22 14:00 45.45496 9.27820 361 ft 18 kts 166°
2026-04-22 14:00 45.45455 9.27943 360 ft 15 kts 104°
2026-04-22 14:00 45.45364 9.27970 360 ft 16 kts 201°
2026-04-22 14:00 45.45259 9.27892 365 ft 18 kts 202°
2026-04-22 14:01 45.45125 9.27877 366 ft 21 kts 177°
2026-04-22 14:01 45.44975 9.27903 361 ft 23 kts 169°
2026-04-22 14:01 45.44816 9.27940 361 ft 24 kts 172°
2026-04-22 14:01 45.44647 9.27964 362 ft 21 kts 176°
2026-04-22 14:02 45.44492 9.27978 363 ft 23 kts 176°
2026-04-22 14:02 45.44334 9.27995 363 ft 21 kts 175°
2026-04-22 14:02 45.44182 9.28012 364 ft 23 kts 175°
2026-04-22 14:02 45.44017 9.28031 362 ft 25 kts 177°
2026-04-22 14:03 45.43859 9.28044 362 ft 22 kts 176°
2026-04-22 14:03 45.43698 9.28062 360 ft 24 kts 177°
2026-04-22 14:03 45.43567 9.28077 362 ft 16 kts 174°
2026-04-22 14:03 45.43473 9.28066 363 ft 15 kts 212°
2026-04-22 14:04 45.43443 9.27982 360 ft 0 kts 261°
2026-04-22 14:04 45.43442 9.27970 360 ft 3 kts 262°
2026-04-22 14:05 45.43447 9.27887 362 ft 17 kts 303°
2026-04-22 14:05 45.43585 9.27786 367 ft 18 kts 22°
2026-04-22 14:05 45.43758 9.27780 360 ft 14 kts 357°
2026-04-22 14:06 45.43891 9.27771 366 ft 41 kts 355°
2026-04-22 14:06 45.44491 9.27714 360 ft 127 kts 357°
2026-04-22 14:06 45.45563 9.27591 585 ft 171 kts 356°
2026-04-22 14:06 45.46794 9.27419 1391 ft 184 kts 358°
2026-04-22 14:07 45.48152 9.27281 2157 ft 208 kts 358°
2026-04-22 14:07 45.49177 9.27182 2534 ft 229 kts 358°
2026-04-22 14:07 45.50866 9.27154 3087 ft 263 kts 12°
2026-04-22 14:07 45.52626 9.28189 3593 ft 289 kts 37°
2026-04-22 14:08 45.53926 9.30249 4063 ft 267 kts 63°
2026-04-22 14:08 45.54480 9.32685 4548 ft 257 kts 79°
2026-04-22 14:08 45.54819 9.35236 5035 ft 262 kts 79°
2026-04-22 14:08 45.55215 9.37783 5488 ft 264 kts 76°
2026-04-22 14:09 45.55710 9.40320 5975 ft 266 kts 73°
2026-04-22 14:09 45.56277 9.42836 6431 ft 268 kts 71°
2026-04-22 14:09 45.56883 9.45357 6879 ft 269 kts 70°
2026-04-22 14:09 45.57501 9.47865 7324 ft 271 kts 70°
2026-04-22 14:10 45.58129 9.50397 7782 ft 272 kts 70°
2026-04-22 14:10 45.58759 9.52946 8241 ft 273 kts 69°
2026-04-22 14:10 45.59390 9.55510 8698 ft 274 kts 69°
2026-04-22 14:10 45.60024 9.58090 9197 ft 276 kts 69°
2026-04-22 14:11 45.60661 9.60687 9661 ft 277 kts 69°
2026-04-22 14:11 45.61302 9.63305 10136 ft 280 kts 69°
2026-04-22 14:11 45.61955 9.65977 10591 ft 293 kts 69°
2026-04-22 14:11 45.62647 9.68805 11041 ft 309 kts 69°
2026-04-22 14:12 45.63365 9.71740 11496 ft 323 kts 69°
2026-04-22 14:12 45.64125 9.74841 11961 ft 335 kts 69°
2026-04-22 14:12 45.64895 9.77993 12428 ft 337 kts 69°
2026-04-22 14:12 45.65667 9.81171 12899 ft 340 kts 69°
2026-04-22 14:13 45.66445 9.84385 13382 ft 343 kts 69°
2026-04-22 14:13 45.67228 9.87625 13871 ft 346 kts 69°
2026-04-22 14:13 45.68016 9.90886 14318 ft 348 kts 69°
2026-04-22 14:13 45.68807 9.94166 14759 ft 350 kts 69°
2026-04-22 14:14 45.69593 9.97424 15187 ft 351 kts 69°
2026-04-22 14:14 45.70395 10.00753 15654 ft 354 kts 69°
2026-04-22 14:14 45.71202 10.04111 16115 ft 356 kts 69°
2026-04-22 14:14 45.72009 10.07473 16583 ft 358 kts 69°
2026-04-22 14:15 45.72822 10.10868 17052 ft 362 kts 68°
2026-04-22 14:15 45.73646 10.14306 17541 ft 365 kts 68°
2026-04-22 14:15 45.74463 10.17719 18017 ft 367 kts 69°
2026-04-22 14:15 45.75291 10.21194 18514 ft 370 kts 69°
2026-04-22 14:16 45.76125 10.24700 18942 ft 374 kts 68°
2026-04-22 14:16 45.76969 10.28250 19380 ft 378 kts 68°
2026-04-22 14:16 45.77822 10.31845 19833 ft 381 kts 68°
2026-04-22 14:16 45.78677 10.35455 20293 ft 385 kts 68°
2026-04-22 14:17 45.79532 10.39069 20741 ft 389 kts 68°
2026-04-22 14:17 45.80426 10.42752 21195 ft 391 kts 65°
2026-04-22 14:17 45.81553 10.46312 21681 ft 393 kts 61°
2026-04-22 14:17 45.82727 10.49883 22153 ft 397 kts 61°
2026-04-22 14:18 45.83906 10.53481 22630 ft 398 kts 61°
2026-04-22 14:18 45.85073 10.57053 23068 ft 403 kts 61°
2026-04-22 14:18 45.86271 10.60719 23395 ft 406 kts 61°
2026-04-22 14:18 45.87469 10.64401 23723 ft 407 kts 61°
2026-04-22 14:19 45.88668 10.68091 24024 ft 410 kts 61°
2026-04-22 14:19 45.89876 10.71814 24310 ft 411 kts 61°
2026-04-22 14:19 45.91088 10.75558 24591 ft 414 kts 61°
2026-04-22 14:19 45.92303 10.79316 24869 ft 415 kts 60°
2026-04-22 14:20 45.94751 10.86904 25463 ft 420 kts 61°
2026-04-22 14:20 45.95984 10.90737 25772 ft 423 kts 60°
2026-04-22 14:20 45.97208 10.94546 26074 ft 425 kts 60°
2026-04-22 14:21 45.99704 11.02327 26694 ft 430 kts 60°
2026-04-22 14:21 46.00959 11.06250 26994 ft 432 kts 60°
2026-04-22 14:22 46.03464 11.14102 27647 ft 435 kts 60°
2026-04-22 14:22 46.04732 11.18082 27979 ft 438 kts 60°
2026-04-22 14:22 46.07285 11.26113 28649 ft 443 kts 60°
2026-04-22 14:23 46.08573 11.30175 28991 ft 445 kts 60°
2026-04-22 14:23 46.09845 11.34194 29311 ft 447 kts 60°
2026-04-22 14:23 46.11133 11.38272 29673 ft 448 kts 60°
2026-04-22 14:23 46.12423 11.42364 30018 ft 448 kts 60°
2026-04-22 14:24 46.13712 11.46460 30343 ft 448 kts 60°
2026-04-22 14:24 46.14834 11.50029 30606 ft 449 kts 60°
2026-04-22 14:24 46.16127 11.54143 30908 ft 451 kts 60°
2026-04-22 14:24 46.17423 11.58277 31197 ft 452 kts 60°
2026-04-22 14:25 46.18706 11.62373 31497 ft 454 kts 60°
2026-04-22 14:25 46.20003 11.66527 31809 ft 454 kts 60°
2026-04-22 14:25 46.21300 11.70684 32137 ft 454 kts 60°
2026-04-22 14:25 46.22593 11.74836 32450 ft 455 kts 60°
2026-04-22 14:26 46.23892 11.79014 32764 ft 454 kts 60°
2026-04-22 14:26 46.25184 11.83178 33099 ft 454 kts 60°
2026-04-22 14:26 46.26474 11.87338 33429 ft 453 kts 60°
2026-04-22 14:26 46.27762 11.91499 33753 ft 453 kts 60°
2026-04-22 14:27 46.29042 11.95642 34094 ft 452 kts 60°
2026-04-22 14:27 46.30327 11.99803 34366 ft 450 kts 60°
2026-04-22 14:27 46.31596 12.03920 34658 ft 448 kts 60°
2026-04-22 14:27 46.32860 12.08030 34933 ft 446 kts 60°
2026-04-22 14:28 46.34116 12.12121 35159 ft 446 kts 60°
2026-04-22 14:28 46.36676 12.20462 35136 ft 455 kts 61°
2026-04-22 14:29 46.39218 12.28795 35136 ft 454 kts 61°
2026-04-22 14:29 46.41762 12.37164 35128 ft 453 kts 61°
2026-04-22 14:30 46.44298 12.45530 35143 ft 452 kts 61°
2026-04-22 14:30 46.46821 12.53879 35134 ft 451 kts 61°
2026-04-22 14:31 46.49314 12.62162 35124 ft 450 kts 61°
2026-04-22 14:31 46.51815 12.70488 35128 ft 449 kts 62°
2026-04-22 14:32 46.54302 12.78805 35118 ft 447 kts 62°
2026-04-22 14:32 46.56764 12.87063 35115 ft 446 kts 62°
2026-04-22 14:33 46.59231 12.95362 35123 ft 446 kts 62°
2026-04-22 14:33 46.61674 13.03610 35134 ft 446 kts 62°
2026-04-22 14:34 46.64127 13.11924 35139 ft 447 kts 62°
2026-04-22 14:34 46.66577 13.20245 35157 ft 446 kts 62°
2026-04-22 14:35 46.69038 13.28551 35154 ft 445 kts 60°
2026-04-22 14:35 46.71885 13.36530 35162 ft 443 kts 57°
2026-04-22 14:36 46.74779 13.44422 35169 ft 444 kts 58°
2026-04-22 14:36 46.77644 13.52444 35179 ft 445 kts 58°
2026-04-22 14:37 46.80480 13.60469 35183 ft 445 kts 58°
2026-04-22 14:37 46.83294 13.68465 35184 ft 444 kts 58°
2026-04-22 14:38 46.86119 13.76511 35190 ft 444 kts 58°
2026-04-22 14:38 46.88916 13.84502 35200 ft 444 kts 59°
2026-04-22 14:39 46.91725 13.92553 35214 ft 444 kts 59°
2026-04-22 14:39 46.94536 14.00631 35215 ft 444 kts 59°
2026-04-22 14:40 46.98690 14.12618 35055 ft 443 kts 59°
2026-04-22 14:40 47.00098 14.16694 34680 ft 441 kts 59°
2026-04-22 14:40 47.01459 14.20644 34275 ft 437 kts 59°
2026-04-22 14:41 47.02816 14.24589 33791 ft 430 kts 59°
2026-04-22 14:41 47.04154 14.28479 33308 ft 425 kts 59°
2026-04-22 14:41 47.05496 14.32379 32826 ft 434 kts 59°
2026-04-22 14:41 47.06870 14.36372 32346 ft 440 kts 60°
2026-04-22 14:42 47.08236 14.40359 31886 ft 435 kts 60°
2026-04-22 14:42 47.09583 14.44307 31428 ft 428 kts 60°
2026-04-22 14:42 47.10847 14.48236 30973 ft 422 kts 64°
2026-04-22 14:42 47.11813 14.52229 30540 ft 419 kts 70°
2026-04-22 14:43 47.12539 14.56373 30077 ft 417 kts 72°
2026-04-22 14:43 47.13244 14.60492 29550 ft 413 kts 72°
2026-04-22 14:43 47.13950 14.64569 29028 ft 409 kts 72°
2026-04-22 14:43 47.14642 14.68562 28528 ft 405 kts 72°
2026-04-22 14:44 47.15330 14.72556 28025 ft 401 kts 72°
2026-04-22 14:44 47.16009 14.76514 27540 ft 397 kts 72°
2026-04-22 14:44 47.16682 14.80452 27063 ft 394 kts 73°
2026-04-22 14:44 47.17344 14.84348 26585 ft 390 kts 73°
2026-04-22 14:45 47.17987 14.88138 26127 ft 387 kts 73°
2026-04-22 14:45 47.18638 14.91976 25665 ft 385 kts 73°
2026-04-22 14:45 47.19282 14.95783 25219 ft 382 kts 73°
2026-04-22 14:45 47.19919 14.99556 24770 ft 378 kts 73°
2026-04-22 14:46 47.20549 15.03304 24343 ft 376 kts 73°
2026-04-22 14:46 47.21166 15.06975 23915 ft 373 kts 73°
2026-04-22 14:46 47.21785 15.10674 23432 ft 370 kts 73°
2026-04-22 14:46 47.22397 15.14330 22928 ft 366 kts 73°
2026-04-22 14:47 47.23003 15.17965 22426 ft 365 kts 73°
2026-04-22 14:47 47.23608 15.21596 21940 ft 362 kts 73°
2026-04-22 14:47 47.24203 15.25181 21455 ft 358 kts 73°
2026-04-22 14:47 47.24787 15.28696 20990 ft 357 kts 73°
2026-04-22 14:48 47.25367 15.32197 20533 ft 355 kts 73°
2026-04-22 14:48 47.25947 15.35713 20076 ft 351 kts 73°
2026-04-22 14:48 47.26516 15.39164 19631 ft 351 kts 73°
2026-04-22 14:48 47.27090 15.42653 19178 ft 349 kts 73°
2026-04-22 14:49 47.27655 15.46103 18744 ft 345 kts 73°
2026-04-22 14:49 47.28217 15.49532 18280 ft 345 kts 73°
2026-04-22 14:49 47.28777 15.52961 17778 ft 341 kts 73°
2026-04-22 14:49 47.29329 15.56352 17299 ft 340 kts 73°
2026-04-22 14:50 47.29881 15.59743 16810 ft 338 kts 73°
2026-04-22 14:50 47.30426 15.63089 16343 ft 335 kts 73°
2026-04-22 14:50 47.30786 15.65304 16034 ft 336 kts 73°
2026-04-22 14:50 47.31325 15.68633 15565 ft 333 kts 73°
2026-04-22 14:51 47.31861 15.71956 15110 ft 330 kts 73°
2026-04-22 14:51 47.32391 15.75240 14663 ft 327 kts 74°
2026-04-22 14:51 47.32913 15.78488 14219 ft 324 kts 73°
2026-04-22 14:51 47.33424 15.81674 13749 ft 321 kts 73°
2026-04-22 14:52 47.33936 15.84872 13264 ft 319 kts 73°
2026-04-22 14:52 47.34441 15.88037 12778 ft 315 kts 73°
2026-04-22 14:52 47.34942 15.91174 12301 ft 313 kts 73°
2026-04-22 14:52 47.35437 15.94287 11895 ft 309 kts 73°
2026-04-22 14:53 47.35926 15.97365 11504 ft 306 kts 73°
2026-04-22 14:53 47.36440 16.00385 11142 ft 299 kts 66°
2026-04-22 14:53 47.37476 16.02922 11012 ft 280 kts 44°
2026-04-22 14:53 47.38985 16.04556 10999 ft 260 kts 23°
2026-04-22 14:54 47.40628 16.05422 10999 ft 244 kts 17°
2026-04-22 14:54 47.42212 16.06207 11004 ft 243 kts 17°
2026-04-22 14:54 47.43846 16.07019 11006 ft 250 kts 17°
2026-04-22 14:54 47.45502 16.07841 10998 ft 249 kts 18°
2026-04-22 14:55 47.47126 16.08649 11003 ft 244 kts 17°
2026-04-22 14:55 47.48723 16.09444 10999 ft 246 kts 18°
2026-04-22 14:55 47.50371 16.10264 10985 ft 248 kts 18°
2026-04-22 14:55 47.51997 16.11074 10825 ft 251 kts 17°
2026-04-22 14:56 47.53647 16.11897 10574 ft 248 kts 18°
2026-04-22 14:56 47.55230 16.12686 10332 ft 245 kts 17°
2026-04-22 14:56 47.56865 16.13500 10078 ft 242 kts 17°
2026-04-22 14:56 47.58463 16.14294 9807 ft 242 kts 17°
2026-04-22 14:57 47.60055 16.15087 9530 ft 241 kts 17°
2026-04-22 14:57 47.61643 16.15878 9268 ft 240 kts 17°
2026-04-22 14:57 47.63112 16.17029 8996 ft 242 kts 40°
2026-04-22 14:57 47.64274 16.18845 8738 ft 243 kts 44°
2026-04-22 14:58 47.65387 16.20688 8474 ft 241 kts 45°
2026-04-22 14:58 47.66507 16.22553 8215 ft 242 kts 45°
2026-04-22 14:58 47.67626 16.24408 8021 ft 237 kts 44°
2026-04-22 14:58 47.68697 16.26178 8002 ft 225 kts 44°
2026-04-22 14:59 47.69760 16.27920 8007 ft 230 kts 44°
2026-04-22 14:59 47.70831 16.29671 7869 ft 232 kts 44°
2026-04-22 14:59 47.71913 16.31441 7601 ft 229 kts 44°
2026-04-22 14:59 47.72913 16.33084 7362 ft 225 kts 44°
2026-04-22 15:00 47.73916 16.34733 7138 ft 229 kts 44°
2026-04-22 15:00 47.74991 16.36495 6884 ft 229 kts 44°
2026-04-22 15:00 47.76044 16.38225 6623 ft 222 kts 44°
2026-04-22 15:00 47.77055 16.39892 6373 ft 217 kts 44°
2026-04-22 15:01 47.78062 16.41551 6101 ft 214 kts 44°
2026-04-22 15:01 47.79053 16.43182 5835 ft 211 kts 44°
2026-04-22 15:01 47.80031 16.44784 5577 ft 207 kts 43°
2026-04-22 15:01 47.80997 16.46370 5330 ft 206 kts 44°
2026-04-22 15:02 47.81942 16.47928 5071 ft 204 kts 43°
2026-04-22 15:02 47.82874 16.49472 4997 ft 198 kts 44°
2026-04-22 15:02 47.83820 16.51038 5003 ft 204 kts 44°
2026-04-22 15:02 47.84764 16.52598 5003 ft 203 kts 44°
2026-04-22 15:03 47.85716 16.54170 4848 ft 203 kts 44°
2026-04-22 15:03 47.86656 16.55717 4643 ft 199 kts 44°
2026-04-22 15:03 47.87559 16.57219 4451 ft 191 kts 43°
2026-04-22 15:03 47.88425 16.58660 4272 ft 186 kts 43°
2026-04-22 15:04 47.89285 16.60087 4077 ft 182 kts 43°
2026-04-22 15:04 47.90112 16.61459 3987 ft 171 kts 43°
2026-04-22 15:04 47.90866 16.62718 4001 ft 158 kts 43°
2026-04-22 15:04 47.91620 16.63961 4017 ft 161 kts 42°
2026-04-22 15:05 47.92473 16.64948 3896 ft 153 kts 20°
2026-04-22 15:05 47.93487 16.65273 3706 ft 151 kts 358°
2026-04-22 15:05 47.94529 16.65107 3535 ft 151 kts 348°
2026-04-22 15:05 47.95548 16.64737 3340 ft 149 kts 345°
2026-04-22 15:06 47.96545 16.64326 3148 ft 148 kts 345°
2026-04-22 15:06 47.97523 16.63915 2956 ft 145 kts 345°
2026-04-22 15:06 47.98482 16.63514 2783 ft 140 kts 345°
2026-04-22 15:06 47.99401 16.63123 2567 ft 133 kts 345°
2026-04-22 15:07 48.00264 16.62758 2391 ft 125 kts 344°
2026-04-22 15:07 48.01108 16.62400 2217 ft 129 kts 344°
2026-04-22 15:07 48.01993 16.62026 2035 ft 131 kts 345°
2026-04-22 15:07 48.02867 16.61658 1867 ft 132 kts 345°
2026-04-22 15:08 48.03764 16.61285 1674 ft 134 kts 345°
2026-04-22 15:08 48.04650 16.60910 1481 ft 130 kts 344°
2026-04-22 15:08 48.05507 16.60547 1302 ft 124 kts 345°
2026-04-22 15:08 48.06329 16.60202 1139 ft 124 kts 345°
2026-04-22 15:09 48.07171 16.59844 967 ft 127 kts 345°
2026-04-22 15:09 48.08018 16.59488 798 ft 128 kts 346°
2026-04-22 15:09 48.08863 16.59131 649 ft 120 kts 346°
2026-04-22 15:09 48.09579 16.58840 617 ft 77 kts 343°
2026-04-22 15:10 48.09924 16.58697 614 ft 40 kts 339°
2026-04-22 15:10 48.10050 16.58547 616 ft 20 kts 302°
2026-04-22 15:10 48.10097 16.58403 616 ft 14 kts 295°
2026-04-22 15:10 48.10168 16.58305 617 ft 15 kts 338°
2026-04-22 15:11 48.10268 16.58260 618 ft 15 kts 344°
2026-04-22 15:11 48.10373 16.58216 616 ft 16 kts 345°
2026-04-22 15:11 48.10488 16.58171 621 ft 18 kts 346°
2026-04-22 15:11 48.10614 16.58122 618 ft 19 kts 341°
2026-04-22 15:12 48.10746 16.58062 622 ft 21 kts 345°
2026-04-22 15:12 48.10886 16.58003 614 ft 22 kts 345°
2026-04-22 15:12 48.11033 16.57938 622 ft 17 kts 345°
2026-04-22 15:12 48.11113 16.57839 617 ft 16 kts 290°
2026-04-22 15:13 48.11166 16.57681 613 ft 18 kts 300°
2026-04-22 15:13 48.11227 16.57502 609 ft 20 kts 296°
2026-04-22 15:13 48.11279 16.57343 617 ft 15 kts 295°
2026-04-22 15:13 48.11314 16.57225 623 ft 0 kts 293°
2026-04-22 15:14 48.11317 16.57215 620 ft 5 kts 293°
2026-04-22 15:14 48.11346 16.57117 616 ft 14 kts 296°
2026-04-22 15:15 48.11399 16.56977 623 ft 17 kts 298°
2026-04-22 15:15 48.11487 16.56891 609 ft 16 kts
2026-04-22 15:15 48.11570 16.56891 614 ft 7 kts 335°
2026-04-22 15:15 48.11608 16.56882 617 ft 0 kts 359°
2026-04-22 15:16 48.11612 16.56882 617 ft 2 kts 359°
2026-04-22 15:16 48.11637 16.56894 614 ft 5 kts 20°
2026-04-22 15:16 48.11652 16.56905 609 ft 0 kts 26°
2026-04-22 15:17 48.11662 16.56912 609 ft 3 kts 28°
2026-04-22 15:17 48.11671 16.56920 609 ft 2 kts 30°
2026-04-22 15:17 48.11672 16.56922 625 ft 0 kts 31°
2026-04-22 15:17 48.11676 16.56925 621 ft 1 kts 31°
2026-04-22 15:18 48.11677 16.56926 621 ft 0 kts 31°